User: anonymous   Login
Location: Columbia
(38.9520°N, 92.3340°W)
Time: 04:08:42
(UTC-05:00)
Language:

SL-08 RB Rocket - Orbit

View from above orbital plane
View from above orbital plane
View from above satellite
View from above satellite

Ground track
Ground track

The orbit data is extracted from the following two-line orbital elements,

1 26387U 00033D   17083.93237694 +.00000069 +00000-0 +20296-4 0  9992
2 26387 097.9800 150.3386 0025308 243.4837 225.8014 14.68249702153202
Epoch (UTC): 24 March 2017 22:22:37
Eccentricity: 0.0025308
inclination: 97.9800°
perigee height: 649 km
apogee height: 684 km
right ascension of ascending node: 150.3386°
argument of perigee: 243.4837°
revolutions per day: 14.68249702
mean anomaly at epoch: 225.8014°
orbit number at epoch: 15320

The dashed part of the orbit path shows where the satellite is in the earth's shadow,  

DLR